Change the Weather History Date:

Friday, November 2, 2012

  Actual Average (KRDG) Record (KRDG)
Temperature  
Mean Temperature 45 °F 49 °F  
Max Temperature 51 °F 59 °F 82 °F (1982)
Min Temperature 42 °F 38 °F 22 °F (1976)
Degree Days  
Heating Degree Days 20 16  
Month to date heating degree days 32  
Since 1 July heating degree days 470  
Cooling Degree Days 0 0  
Month to date cooling degree days 0  
Year to date cooling degree days 896  
Moisture  
Dew Point 34 °F    
Average Humidity 66    
Maximum Humidity 74    
Minimum Humidity 56    
Precipitation  
Precipitation 0.00 in 0.12 in 1.71 in (1897)
Month to date precipitation 0.22  
Year to date precipitation 36.74  
Sea Level Pressure  
Sea Level Pressure 29.73 in    
Wind  
Wind Speed 7 mph (West)    
Max Wind Speed 15 mph    
Max Gust Speed 24 mph    
Visibility 10 miles    
Events Rain    
T = Trace of Precipitation, MM = Missing Value Source: NWS Daily Summary

Daily Weather History Graph

Daily Weather History Graph

Search for Another Location

Airport or City:

Trip Planner

Search our weather history database for the weather conditions in past years. The results will help you decide how hot, cold, wet, or windy it might be!

Date:

Astronomy

Nov. 02, 2012 Rise Set
Actual Time 7:33 AM EDT 5:57 PM EDT
Civil Twilight 7:05 AM EDT 6:25 PM EDT
Nautical Twilight 6:32 AM EDT 6:58 PM EDT
Astronomical Twilight 6:01 AM EDT 7:29 PM EDT
Moon 8:42 PM EDT (11/2) 10:52 AM EDT (11/2)
Length of Visible Light 11h 20m
Length of Day
10h 24m
Waning Gibbous, 87% of the Moon is Illuminated
Nov 2
Waning Gibbous
Nov 6
Last Quarter
Nov 13
New
Nov 20
First Quarter
Nov 28
Full

Hourly Weather History & Observations

Time (EDT) Temp. Windchill Dew Point Humidity Pressure Visibility Wind Dir Wind Speed Gust Speed Precip Events Conditions
12:54 AM 46.9 °F - 37.0 °F 68% 29.68 in 10.0 mi West 5.8 mph - N/A   Overcast
1:54 AM 46.9 °F - 37.0 °F 68% 29.68 in 10.0 mi WSW 5.8 mph - N/A   Overcast
2:54 AM 46.0 °F 43.1 °F 37.0 °F 71% 29.68 in 10.0 mi West 5.8 mph - 0.00 in   Overcast
3:54 AM 45.0 °F 41.8 °F 37.0 °F 74% 29.68 in 10.0 mi West 5.8 mph - N/A   Overcast
4:54 AM 45.0 °F 41.2 °F 36.0 °F 71% 29.68 in 10.0 mi West 6.9 mph - N/A   Overcast
5:54 AM 43.0 °F 39.5 °F 35.1 °F 74% 29.68 in 10.0 mi West 5.8 mph - N/A   Scattered Clouds
6:54 AM 42.1 °F 39.2 °F 34.0 °F 73% 29.69 in 10.0 mi West 4.6 mph - N/A   Clear
7:54 AM 42.1 °F 38.4 °F 34.0 °F 73% 29.69 in 10.0 mi West 5.8 mph - N/A   Scattered Clouds
8:54 AM 43.0 °F 38.8 °F 34.0 °F 71% 29.71 in 10.0 mi West 6.9 mph - N/A   Partly Cloudy
9:54 AM 45.0 °F 40.1 °F 34.0 °F 65% 29.72 in 10.0 mi West 9.2 mph - N/A   Scattered Clouds
10:54 AM 46.0 °F 41.4 °F 35.1 °F 66% 29.72 in 10.0 mi West 9.2 mph 17.3 mph N/A   Overcast
11:54 AM 48.0 °F - 35.1 °F 61% 29.71 in 10.0 mi West 8.1 mph - N/A   Scattered Clouds
12:54 PM 48.9 °F - 35.1 °F 59% 29.70 in 10.0 mi West 8.1 mph 18.4 mph N/A   Mostly Cloudy
1:54 PM 48.9 °F - 34.0 °F 56% 29.69 in 10.0 mi West 9.2 mph 19.6 mph N/A   Overcast
2:54 PM 46.9 °F - 36.0 °F 66% 29.70 in 10.0 mi West 10.4 mph - N/A   Overcast
3:54 PM 46.9 °F - 35.1 °F 63% 29.71 in 10.0 mi WNW 9.2 mph 17.3 mph 0.00 in Rain Light Rain
4:54 PM 46.9 °F - 35.1 °F 63% 29.73 in 10.0 mi WNW 8.1 mph 16.1 mph 0.00 in   Overcast
5:54 PM 46.0 °F 41.4 °F 34.0 °F 63% 29.75 in 10.0 mi West 9.2 mph - N/A   Overcast
6:54 PM 46.0 °F 39.6 °F 34.0 °F 63% 29.79 in 10.0 mi NNW 15.0 mph 19.6 mph N/A   Overcast
7:54 PM 45.0 °F 40.6 °F 33.1 °F 63% 29.81 in 10.0 mi WNW 8.1 mph - 0.00 in   Overcast
8:54 PM 45.0 °F 40.6 °F 32.0 °F 60% 29.82 in 10.0 mi WNW 8.1 mph - N/A   Overcast
9:54 PM 44.1 °F 37.7 °F 30.0 °F 58% 29.83 in 10.0 mi WNW 12.7 mph 24.2 mph N/A   Overcast
10:54 PM 42.1 °F 38.4 °F 30.9 °F 65% 29.85 in 10.0 mi WNW 5.8 mph 16.1 mph N/A   Partly Cloudy
11:54 PM 43.0 °F 38.8 °F 32.0 °F 65% 29.85 in 10.0 mi WNW 6.9 mph - N/A   Overcast